Weather History for KASL - December, 2012

Change the Weather History Date:

Monday, December 17, 2012

  Actual Average (KGGG) Record (KGGG)
Temperature  
Mean Temperature 50 °F 47 °F  
Max Temperature 62 °F 58 °F 80 °F (1924)
Min Temperature 35 °F 37 °F 20 °F (1926)
Degree Days  
Heating Degree Days 16 18  
Month to date heating degree days 277  
Since 1 July heating degree days 649  
Cooling Degree Days 0 0  
Month to date cooling degree days 0  
Year to date cooling degree days 2417  
Moisture  
Dew Point 43 °F    
Average Humidity 77    
Maximum Humidity 94    
Minimum Humidity 36    
Precipitation  
Precipitation 0.01 in 0.15 in 1.65 in (1937)
Month to date precipitation 2.65  
Year to date precipitation 45.71  
Snow  
Snow 0.00 in - - ()
Month to date snowfall  
Since 1 July snowfall  
Snow Depth -    
Sea Level Pressure  
Sea Level Pressure 29.84 in    
Wind  
Wind Speed 5 mph (WSW)    
Max Wind Speed 15 mph    
Max Gust Speed 25 mph    
Visibility 7 miles    
Events      
T = Trace of Precipitation, MM = Missing Value Source: NWS Daily Summary

Daily Weather History Graph

Daily Weather History Graph

Search for Another Location

Airport or City:

Trip Planner

Search our weather history database for the weather conditions in past years. The results will help you decide how hot, cold, wet, or windy it might be!

Date:

Astronomy

Dec. 17, 2012 Rise Set
Actual Time 7:13 AM CST 5:14 PM CST
Civil Twilight 6:45 AM CST 5:41 PM CST
Nautical Twilight 6:15 AM CST 6:12 PM CST
Astronomical Twilight 5:45 AM CST 6:42 PM CST
Moon 10:35 AM CST (12/17) 10:21 PM CST (12/17)
Length of Visible Light 10h 55m
Length of Day
10h 01m
Waxing Crescent, 25% of the Moon is Illuminated
Dec 17
Waxing Crescent
Dec 19
First Quarter
Dec 28
Full
Jan 4
Last Quarter
Jan 11
New

Hourly Weather History & Observations

Time (CST) Temp. Windchill Dew Point Humidity Pressure Visibility Wind Dir Wind Speed Gust Speed Precip Events Conditions
12:15 AM 55.4 °F - 53.6 °F 94% 29.80 in 4.0 mi SSW 4.6 mph - N/A   Mostly Cloudy
12:35 AM 55.4 °F - 51.8 °F 88% 29.80 in 3.0 mi Calm Calm - N/A   Scattered Clouds
12:55 AM 55.4 °F - 53.6 °F 94% 29.80 in 1.0 mi SSW 4.6 mph - N/A   Overcast
1:15 AM 55.4 °F - 53.6 °F 94% 29.80 in 0.5 mi South 4.6 mph - N/A   Overcast
1:35 AM 55.4 °F - 53.6 °F 94% 29.80 in 0.5 mi South 4.6 mph - N/A   Overcast
1:55 AM 55.4 °F - 53.6 °F 94% 29.79 in 0.2 mi South 3.5 mph - N/A   Overcast
2:15 AM 51.8 °F - 50.0 °F 94% 29.79 in 0.2 mi SSE 4.6 mph - N/A   Overcast
2:35 AM 53.6 °F - 51.8 °F 94% 29.79 in 0.2 mi South 3.5 mph - N/A   Overcast
2:55 AM 53.6 °F - 51.8 °F 94% 29.79 in 0.2 mi South 4.6 mph - N/A   Overcast
3:15 AM 51.8 °F - 50.0 °F 94% 29.78 in 0.2 mi South 4.6 mph - N/A   Overcast
3:35 AM 51.8 °F - 50.0 °F 94% 29.78 in 0.2 mi South 4.6 mph - N/A   Overcast
3:55 AM 51.8 °F - 50.0 °F 94% 29.78 in 0.2 mi South 5.8 mph - N/A   Overcast
4:15 AM 51.8 °F - 50.0 °F 94% 29.78 in 0.2 mi South 5.8 mph - 0.01 in   Overcast
4:35 AM 51.8 °F - 50.0 °F 94% 29.77 in 0.2 mi South 4.6 mph - 0.01 in   Overcast
4:55 AM 51.8 °F - 50.0 °F 94% 29.77 in 0.2 mi South 5.8 mph - 0.01 in   Overcast
5:15 AM 51.8 °F - 50.0 °F 94% 29.76 in 1.0 mi SSE 5.8 mph - N/A   Overcast
5:35 AM 51.8 °F - 50.0 °F 94% 29.76 in 0.2 mi South 5.8 mph - N/A   Overcast
5:55 AM 50.0 °F - 48.2 °F 94% 29.76 in 0.5 mi South 4.6 mph - N/A   Overcast
6:15 AM 50.0 °F - 48.2 °F 94% 29.77 in 4.0 mi Calm Calm - N/A   Scattered Clouds
6:35 AM 50.0 °F - 48.2 °F 94% 29.78 in 7.0 mi Calm Calm - N/A   Clear
6:55 AM 50.0 °F - 48.2 °F 94% 29.80 in 10.0 mi SW 5.8 mph - N/A   Clear
7:15 AM 50.0 °F - 48.2 °F 94% 29.81 in 10.0 mi SW 5.8 mph - N/A   Clear
7:35 AM 46.4 °F 44.3 °F 44.6 °F 93% 29.82 in 10.0 mi SW 4.6 mph - N/A   Clear
7:55 AM 46.4 °F 44.3 °F 44.6 °F 93% 29.83 in 10.0 mi SW 4.6 mph - N/A   Clear
8:15 AM 50.0 °F - 44.6 °F 82% 29.84 in 10.0 mi WSW 3.5 mph - N/A   Clear
8:35 AM 50.0 °F - 42.8 °F 76% 29.84 in 10.0 mi West 4.6 mph - N/A   Clear
8:55 AM 51.8 °F - 41.0 °F 67% 29.85 in 10.0 mi WNW 9.2 mph - N/A   Clear
9:15 AM 51.8 °F - 41.0 °F 67% 29.86 in 10.0 mi WNW 12.7 mph 19.6 mph N/A   Clear
9:35 AM 51.8 °F - 41.0 °F 67% 29.88 in 10.0 mi WNW 15.0 mph 25.3 mph N/A   Clear
9:55 AM 51.8 °F - 39.2 °F 62% 29.88 in 10.0 mi WNW 13.8 mph 21.9 mph N/A   Clear
10:15 AM 51.8 °F - 39.2 °F 62% 29.88 in 10.0 mi WNW 15.0 mph 19.6 mph N/A   Clear
10:35 AM 53.6 °F - 41.0 °F 62% 29.89 in 10.0 mi West 13.8 mph 17.3 mph N/A   Clear
10:55 AM 55.4 °F - 39.2 °F 54% 29.88 in 10.0 mi WNW 11.5 mph 19.6 mph N/A   Clear
11:15 AM 55.4 °F - 39.2 °F 54% 29.88 in 10.0 mi WNW 13.8 mph 18.4 mph N/A   Clear
11:35 AM 55.4 °F - 39.2 °F 54% 29.87 in 10.0 mi West 9.2 mph 18.4 mph N/A   Clear
11:55 AM 55.4 °F - 39.2 °F 54% 29.86 in 10.0 mi West 9.2 mph - N/A   Clear
12:15 PM 57.2 °F - 37.4 °F 48% 29.85 in 10.0 mi West 8.1 mph - N/A   Clear
12:35 PM 59.0 °F - 37.4 °F 45% 29.85 in 10.0 mi West 10.4 mph - N/A   Clear
12:55 PM 60.8 °F - 39.2 °F 45% 29.85 in 10.0 mi WNW 8.1 mph 18.4 mph N/A   Clear
1:15 PM 60.8 °F - 37.4 °F 42% 29.85 in 10.0 mi WNW 11.5 mph - N/A   Clear
1:35 PM 60.8 °F - 37.4 °F 42% 29.85 in 10.0 mi NW 13.8 mph 20.7 mph N/A   Clear
1:55 PM 60.8 °F - 37.4 °F 42% 29.84 in 10.0 mi West 11.5 mph - N/A   Clear
2:15 PM 62.6 °F - 37.4 °F 39% 29.84 in 10.0 mi WNW 8.1 mph - N/A   Clear
2:35 PM 62.6 °F - 35.6 °F 37% 29.84 in 10.0 mi WNW 9.2 mph - N/A   Clear
2:55 PM 62.6 °F - 35.6 °F 37% 29.84 in 10.0 mi WNW 10.4 mph - N/A   Clear
3:15 PM 62.6 °F - 35.6 °F 37% 29.84 in 10.0 mi NW 10.4 mph - N/A   Clear
3:35 PM 60.8 °F - 33.8 °F 36% 29.84 in 10.0 mi WNW 6.9 mph - N/A   Clear
3:55 PM 60.8 °F - 33.8 °F 36% 29.84 in 10.0 mi NW 5.8 mph - N/A   Clear
6:35 PM 44.6 °F - 37.4 °F 76% 29.88 in 10.0 mi Calm Calm - N/A   Clear
6:55 PM 44.6 °F - 39.2 °F 81% 29.89 in 10.0 mi Calm Calm - N/A   Clear
7:15 PM 44.6 °F - 41.0 °F 87% 29.90 in 10.0 mi Calm Calm - N/A   Clear
7:35 PM 44.6 °F - 41.0 °F 87% 29.90 in 10.0 mi Calm Calm - N/A   Clear
7:55 PM 42.8 °F - 39.2 °F 87% 29.90 in 10.0 mi Calm Calm - N/A   Clear
8:15 PM 42.8 °F - 39.2 °F 87% 29.91 in 10.0 mi Calm Calm - N/A   Clear
8:35 PM 42.8 °F - 37.4 °F 81% 29.91 in 10.0 mi Calm Calm - N/A   Clear
8:55 PM 41.0 °F - 37.4 °F 87% 29.91 in 10.0 mi Calm Calm - N/A   Clear
9:35 PM 37.4 °F - 35.6 °F 93% 29.92 in 10.0 mi Calm Calm - N/A   Clear
9:55 PM 37.4 °F - 35.6 °F 93% 29.92 in 10.0 mi Calm Calm - N/A   Clear
10:15 PM 37.4 °F - 35.6 °F 93% 29.92 in 10.0 mi Calm Calm - N/A   Clear
10:35 PM 37.4 °F - 35.6 °F 93% 29.92 in 10.0 mi Calm Calm - N/A   Clear
10:55 PM 37.4 °F - 35.6 °F 93% 29.93 in 10.0 mi Calm Calm - N/A   Clear
11:15 PM 37.4 °F - 35.6 °F 93% 29.93 in 7.0 mi Calm Calm - N/A   Clear
11:35 PM 37.4 °F - 35.6 °F 93% 29.92 in 10.0 mi Calm Calm - N/A   Clear
11:55 PM 35.6 °F - 33.8 °F 93% 29.92 in 7.0 mi Calm Calm - N/A   Mostly Cloudy